COSMOS 1275 DEB, 13458

Orbit data source: Space-Track

COSMOS 1275 DEB, 13458 is space debris in LEO originally from a launch on Thu, 04 Jun 1981 UTC launched from the Plesetsk Missile And Space Complex (PKMTR). Debris objects in space refer to the collection of defunct objects orbiting the Earth. Examples of debris include non-operational satellites, rocket bodies, and fragments generated from explosions, collisions, or faulty payload assembly.

Loading next visibility...
Identifier
13458, 1981-053FE
Orbit
LEO
Country
Flag of CISCIS
Related business
Manufacturer
Unknown
Mission
Spacecraft
Bus & Motor
Unknown
Mass
Unknown
Launch date (UTC)
1981-06-04 (45 years ago)
Launch vehicle
Unknown
Launch site
Plesetsk Missile And Space Complex (PKMTR)
Object type
Payload
Rocket body
Debris
Shape & HBR
Unknown shape, 0.2 m
Radar Cross Section
Medium (>0.1 m² and <1 m²)

Expand to show TLE details & history
Last TLE update: 7 hours ago

TLE from 7 hours ago
0 COSMOS 1275 DEB
1 13458U 81053FE  26037.35524581  .00000902  00000-0  57597-3 0  9996
2 13458  83.0885 260.5842 0023064 221.1039 138.8396 14.02376894240687
Epoch: 2026-02-06T08:31Z
TLE epoch observation values (Epoch: 2026-02-06T08:31:33.237Z)
Latitude
-0.00006°
Longitude
-3.79861°
Altitude
901.15 km
Speed
7.395 km/s
True Right ascension
17h 22m 20s
True Declination
0° 00' 00"
Sunlit
Object was in daylight at epoch
Visualization orbit readout
Latitude
Unknown
Longitude
Unknown
Altitude
Unknown
Speed
Unknown
Apparent Right ascension
Unknown
Apparent Declination
Unknown
Sunlit
N/A
Visualization observer readout
Local Sidereal Time
18:01:48
Azimuth
Unknown
Elevation
Unknown
Doppler factor
Unknown
Orbital elements
Apogee altitude
899.428 km
Perigee altitude
865.935 km
Semi-major axis
7,260.818 km
Eccentricity
0.00231
Inclination
83.0885°
RAAN
260.5842°
Arg. of periapsis
221.1039°
True anomaly
139.01317°
Mean anomaly
138.8396°
Eccentric anomaly
138.92642°
Mean motion
3.50804 °/min
Orbital period
102.62 mins
BSTAR
0.00057597
Loading maneuver chart data...
Computing Atmospheric mass density...
Loading historical data...
Loading historical data...
Loading historical data...
Loading historical data...
Loading historical data...
Loading historical data...
Loading historical data...

Documentation

Showing up to 5 results
|